Regional Weather Roundup
Issued by NWS New Orleans/Baton Rouge, LA

Home | Current Version | Previous Version | Text Only | Print | Product List | Glossary On
Versions: 1 2 3 4 5 6 7 8 9 10 11 12 13 14 15 16 17 18 19 20 21 22 23 24 25 26 27
000
ASUS44 KLIX 282011
RWRLIX
NEW ORLEANS REGIONAL WEATHER ROUNDUP
NATIONAL WEATHER SERVICE NEW ORLEANS LA
300 PM CDT SAT MAY 28 2016

NOTE: "FAIR" INDICATES FEW OR NO CLOUDS BELOW 12,000 FEET WITH NO
      SIGNIFICANT WEATHER AND/OR OBSTRUCTIONS TO VISIBILITY.
      SKY/WX - SKY CONDITION AND SIGNIFICANT WEATHER.
      TMP - AIR TEMPERATURE.     DP    - DEWPOINT TEMPERATURE.
      RH  - RELATIVE HUMIDITY.   PRES  - PRESSURE.
      HI  - HEAT INDEX.          WCI   - WIND CHILL INDEX.

*  THESE STATIONS ARE NOT NWS OR FAA STATIONS AND ARE NOT UNDER
   NWS QUALITY CONTROL.

LAZ038-040-048-061>063-065>067-069-282100-
SOUTHEAST LOUISIANA

CITY           SKY/WX    TMP DP  RH WIND       PRES   REMARKS
N.O. AUDUBON   NOT AVBL
N.O. INTL ARPT TSTM      78  68  71 N14G20    30.03R
N.O. LAKEFRONT LGT RAIN  76  70  82 E12       30.05R
N.O. DOWNTOWN*   N/A     77  70  79 VRB7      30.03F THUNDER
RESERVE*         N/A     84  74  70 NE8       30.01F
SLIDELL        CLOUDY    74  69  85 CALM      30.04S
BATON ROUGE    MOSUNNY   86  68  54 E8        30.01F
BOOTHVILLE     CLOUDY    82  72  71 S9        30.02F
BELLE CHASSE   PTSUNNY   75  71  87 NE10G17   30.01F THUNDER
BOGALUSA*        N/A     83  67  58 S3        30.05S
GALLIANO*      CLOUDY    87  71  58 S9        30.01F
NEW ROADS*       N/A     85  68  57 SE6       30.02S
GONZALES*      HVY RAIN  82  73  74 E5        30.00S
HAMMOND*       CLOUDY    86  64  48 SE8       30.02S
HOUMA*         MOSUNNY   84  73  70 SE9       30.01F
PORT FOURCHON* PTCLDY    82  72  69 S8        30.02F

$$

MSZ070-080>082-282100-
SOUTHERN MISSISSIPPI

CITY           SKY/WX    TMP DP  RH WIND       PRES   REMARKS
MCCOMB         CLOUDY    82  68  62 CALM      30.04S
GULFPORT       CLOUDY    81  67  62 SE13      30.04S
BILOXI         CLOUDY    84  67  57 SE9       30.05S
PASCAGOULA     MOSUNNY   84  66  54 S7        30.05F
STENNIS ARPT*  PTSUNNY   82  63  51 SE9       30.04S

$$

COASTAL OBSERVATIONS
LAKE AND NEARSHORE STATIONS

STATION/POSITION TIME  TEMP    WIND        PRES    WAVE
                       AIR SEA DIR/SP/G            HT/PER
                 (UTC) (F)     (DEG/KT/KT) (MB)    (FT/S)
PASCAGOULA       1900   84     150/  8/ 11 1017.5
WAVELAND YACHT   1900   80 79  120/  8/  9 1017.2
GRAND ISLE       1900   82 81  160/  5/  9 1016.7
SOUTHWEST PASS   1900          150/  3/  5   N/A
NEW CANAL        1900   77 81  140/  5/ 12 1015.7
SHELL BEACH      1900   80 81  140/ 12/ 15 1016.8

OFFSHORE STATIONS

STATION/POSITION TIME  TEMP    WIND        PRES    WAVE
                       AIR SEA DIR/SP/G            HT/PER
                 (UTC) (F)     (DEG/KT/KT) (MB)    (FT/S)
64 S DAUPHIN ISL 1900   79 79  140/ 10/ 12 1017.0

$$





USA.gov is the U.S. government's official web portal to all federal, state and local government web resources and services.